Deer Park, WA
on Wednesday, January 2, 2013

Wednesday
Previous Day Next Day
Daily Summary
 ActualAverageRecord
Temperature
Mean Temperature °F / °C 25°F / -4°C  
Max Temperature 28°F / -2°C 32°F / 0°C 44°F / 6°C (2007)
Min Temperature 5°F / -15°C 19°F / -7°C -8°F / -22°C (2009)
Degree Days
Heating Degree Days 48 40  
Month to date heating degree days 100 80  
Since 1 July heating degree days 2893 3307  
Cooling Degree Days 0 0  
Month to date cooling degree days 0 0  
Year to date cooling degree days 0 0  
Moisture
Dew Point 17°F / -8°C   
Average Humidity 85    
Maximum Humidity 100    
Minimum Humidity 69    
Precipitation
Precipitation 0.00 in / 0.00 cm 0.11 in / 2.79 cm 0.63 in / 1.60 cm (2003)
Month to date precipitation 0.00 0.22  
Year to date precipitation 0.00 0.22  
Wind
Wind Speed 2 mph / 3 km/h   
Max Wind Speed 8 mph / 13 km/h   
Max Gust Speed 10 mph / 16 km/h   
Visibility 9 miles / 14 kilometers   
Events     

Key: T is trace of precipitation, MM is missing value
Source: NWS Daily Summary
Time(PST)TemperatureDew PointHumidity Pressure Visibility Wind DirectionWind SpeedGust SpeedPrecipitationEvents Conditions
12:53 AM 19.9°F / -6.7°C 18.0°F / -7.8°C 92% 30.65 in / 1037.7 hPa 6.0 miles / 9.7 kilometers Calm Calm - N/A   Overcast
1:53 AM 19.9°F / -6.7°C 19.0°F / -7.2°C 96% 30.66 in / 1038.0 hPa 6.0 miles / 9.7 kilometers Calm Calm - N/A   Overcast
2:53 AM 19.9°F / -6.7°C 18.0°F / -7.8°C 92% 30.66 in / 1038.0 hPa 6.0 miles / 9.7 kilometers Calm Calm - N/A   Overcast
3:53 AM 19.9°F / -6.7°C 19.0°F / -7.2°C 96% 30.65 in / 1037.9 hPa 6.0 miles / 9.7 kilometers Calm Calm - N/A   Overcast
4:53 AM 19.9°F / -6.7°C 19.0°F / -7.2°C 96% 30.63 in / 1037.3 hPa 7.0 miles / 11.3 kilometers Calm Calm - N/A   Overcast
5:53 AM 19.9°F / -6.7°C 18.0°F / -7.8°C 92% 30.63 in / 1037.0 hPa 7.0 miles / 11.3 kilometers Calm Calm - N/A   Overcast
7:53 AM 21.0°F / -6.1°C 19.0°F / -7.2°C 92% 30.63 in / 1037.0 hPa 8.0 miles / 12.9 kilometers Calm Calm - N/A   Overcast
8:53 AM 21.0°F / -6.1°C 19.0°F / -7.2°C 92% 30.63 in / 1037.1 hPa 7.0 miles / 11.3 kilometers Calm Calm - N/A   Overcast
9:53 AM 21.9°F / -5.6°C 19.9°F / -6.7°C 92% 30.64 in / 1037.4 hPa 9.0 miles / 14.5 kilometers Calm Calm - N/A   Overcast
10:53 AM 24.1°F / -4.4°C 21.0°F / -6.1°C 88% 30.63 in / 1037.2 hPa 10.0 miles / 16.1 kilometers Calm Calm - N/A   Overcast
11:53 AM 27.0°F / -2.8°C 21.0°F / -6.1°C 78% 30.61 in / 1036.6 hPa 10.0 miles / 16.1 kilometers North 3.5 mph / 5.6 km/h - N/A   Overcast
12:53 PM 28.0°F / -2.2°C 19.9°F / -6.7°C 72% 30.59 in / 1035.9 hPa 10.0 miles / 16.1 kilometers Calm Calm - N/A   Overcast
1:53 PM 28.0°F / -2.2°C 19.9°F / -6.7°C 72% 30.59 in / 1035.9 hPa 10.0 miles / 16.1 kilometers Calm Calm - N/A   Overcast
2:53 PM 27.0°F / -2.8°C 19.0°F / -7.2°C 72% 30.59 in / 1035.8 hPa 10.0 miles / 16.1 kilometers NE 5.8 mph / 9.3 km/h - N/A   Overcast
3:53 PM 27.0°F / -2.8°C 19.9°F / -6.7°C 75% 30.59 in / 1035.7 hPa 10.0 miles / 16.1 kilometers North 3.5 mph / 5.6 km/h - N/A   Overcast
4:53 PM 26.1°F / -3.3°C 19.9°F / -6.7°C 78% 30.58 in / 1035.6 hPa 10.0 miles / 16.1 kilometers North 3.5 mph / 5.6 km/h - N/A   Overcast
5:46 PM 21.2°F / -6.0°C 15.8°F / -9.0°C 80% 30.48 in / 1032.1 hPa 10.0 miles / 16.1 kilometers North 5.8 mph / 9.3 km/h - N/A   Scattered Clouds
5:53 PM 21.0°F / -6.1°C 17.1°F / -8.3°C 85% 30.58 in / 1035.5 hPa 10.0 miles / 16.1 kilometers North 4.6 mph / 7.4 km/h - N/A   Partly Cloudy
6:53 PM 16.0°F / -8.9°C 15.1°F / -9.4°C 96% 30.58 in / 1035.5 hPa 10.0 miles / 16.1 kilometers North 5.8 mph / 9.3 km/h - N/A   Clear
7:53 PM 12.0°F / -11.1°C 10.9°F / -11.7°C 95% 30.58 in / 1035.3 hPa 10.0 miles / 16.1 kilometers NNW 4.6 mph / 7.4 km/h - N/A   Clear
8:53 PM 12.0°F / -11.1°C 10.0°F / -12.2°C 92% 30.57 in / 1035.0 hPa 10.0 miles / 16.1 kilometers NE 4.6 mph / 7.4 km/h - N/A   Clear
9:53 PM 12.9°F / -10.6°C 10.9°F / -11.7°C 92% 30.56 in / 1034.7 hPa 10.0 miles / 16.1 kilometers Calm Calm - N/A   Clear
10:53 PM 7.0°F / -13.9°C 5.0°F / -15.0°C 92% 30.56 in / 1034.6 hPa 10.0 miles / 16.1 kilometers NNW 4.6 mph / 7.4 km/h - N/A   Clear
11:53 PM 6.1°F / -14.4°C 3.9°F / -15.6°C 91% 30.54 in / 1034.0 hPa 10.0 miles / 16.1 kilometers NW 4.6 mph / 7.4 km/h - N/A   Clear
Moon Phase
Jan. 02 Jan. 04 Jan. 11 Jan. 18 Jan. 26
Sunrise:07:39 AM (PST) Moon Rise:10:13 PM (PST)1/2
Sunset:04:08 PM (PST) Moon Set:09:58 AM (PST)1/2

Copyright © 2014 The Weather Underground, Inc.